Starlink 35374

operational
NORAD ID: 66194 Int'l Des: 2025-243 Owner: SPXS Country: US Constellation: starlink
LEOCIRCULAR

关于 Starlink 35374

正在加载描述...

实时位置

正在加载3D地球...

即将过境

高度历史

Altitude vs Time

uPlot chart will show altitude changes over time

两行轨道根数

1 66194U 25243T 25350.92689088 .00020489 00000-0 70167-3 0 9994
2 66194 53.1599 269.5877 0001138 101.7226 258.3903 15.30214004 7980
Epoch: Dec 16, 2025 • Age: 10 hours

当前状态

高度 478.8 km
速度 7.63 km/s
星下点 43.98°N, 167.11°W
发射日期 Oct 26, 2025
运行时间 0.1 years
类型 internet

技术详情

分类 Payload
质量 575.00 kg
干质量 530.00 kg
总质量 575.00 kg
长度 0.30 m
直径 4.10 m
跨度 29.00 m
形状 Box + pan
制造商 SPXS
平台类型 Starlink V2MO
阶段状态 In Orbit
所有者/国家 SPXS/US

大型星座

Loading constellations...